Find Starlink 4215

NORAD ID: 53007 Int'l Des: 2022-076 Owner: SPXS Country: US Constellation: starlink operational
LEOCIRCULAR

Live Position

Loading 3D Globe...

About Starlink 4215

Description loading...

Upcoming Passes

Passes for default location (London). Set your location on the main map for personalized predictions.

Altitude History

Loading altitude history...

Two-Line Element Set

1 53007U 22076X 26110.45007308 -.00000731 00000-0 -27858-4 0 9996
2 53007 53.2174 266.6516 0001393 95.3701 264.7450 15.08837361209159
Epoch: Apr 20, 2026 • Age: 11 hours

Current Status

Altitude 559.2 km
Velocity 7.58 km/s
Sub-Earth Point -53.24°S, 7.92°E
Launch Date Jul 7, 2022
Age 3.7 years
Type internet

Technical Details

Classification Payload
Mass 297.00 kg
Dry Mass 275.00 kg
Total Mass 297.00 kg
Length 0.20 m
Diameter 2.80 m
Span 9.00 m
Shape Box + pan
Manufacturer SPXS
Bus Type Starlink
Phase Status In Orbit
Owner/State SPXS/US

Most Searched